N493MM F88-KSHV

Flight info

Callsign N493MM
Flight time N/A
Altitude 6500
Route /
Aircraft TBM9/L-VGDW/C

Departure

Time N/A
Airport F88

Arrival

Time 2026-04-22 02:43
Airport Shreveport Regional Airport (KSHV)
Time Latitude Longitude Altitude Speed Heading
2026-04-22 02:16 32.20537 -92.73206 259 ft 0 kts 92°
2026-04-22 02:24 32.20531 -92.73199 256 ft 3 kts 174°
2026-04-22 02:24 32.20538 -92.73219 256 ft 8 kts 349°
2026-04-22 02:24 32.20612 -92.73222 256 ft 12 kts 355°
2026-04-22 02:24 32.20627 -92.73294 256 ft 10 kts 200°
2026-04-22 02:25 32.20407 -92.73295 257 ft 63 kts 180°
2026-04-22 02:25 32.19763 -92.73283 314 ft 117 kts 178°
2026-04-22 02:25 32.18948 -92.73271 871 ft 119 kts 179°
2026-04-22 02:25 32.18072 -92.73356 1383 ft 128 kts 203°
2026-04-22 02:26 32.17600 -92.74180 2082 ft 129 kts 264°
2026-04-22 02:26 32.17849 -92.75229 2656 ft 134 kts 283°
2026-04-22 02:26 32.18101 -92.76331 3072 ft 149 kts 279°
2026-04-22 02:26 32.18396 -92.77521 3653 ft 152 kts 281°
2026-04-22 02:27 32.18704 -92.78726 4297 ft 153 kts 279°
2026-04-22 02:27 32.19012 -92.79936 4914 ft 156 kts 279°
2026-04-22 02:27 32.19325 -92.81159 5530 ft 157 kts 278°
2026-04-22 02:27 32.19639 -92.82391 6173 ft 158 kts 278°
2026-04-22 02:28 32.19968 -92.83701 6489 ft 182 kts 279°
2026-04-22 02:28 32.20364 -92.85256 6510 ft 213 kts 281°
2026-04-22 02:28 32.20819 -92.86989 6516 ft 232 kts 281°
2026-04-22 02:28 32.21305 -92.88863 6519 ft 243 kts 281°
2026-04-22 02:29 32.21800 -92.90806 6518 ft 249 kts 281°
2026-04-22 02:29 32.22299 -92.92779 6516 ft 252 kts 281°
2026-04-22 02:29 32.22802 -92.94766 6515 ft 253 kts 282°
2026-04-22 02:29 32.23307 -92.96761 6515 ft 254 kts 281°
2026-04-22 02:30 32.23811 -92.98761 6513 ft 254 kts 281°
2026-04-22 02:30 32.24317 -93.00764 6515 ft 255 kts 282°
2026-04-22 02:30 32.24818 -93.02746 6514 ft 255 kts 282°
2026-04-22 02:30 32.25325 -93.04754 6512 ft 255 kts 282°
2026-04-22 02:31 32.25832 -93.06770 6512 ft 255 kts 282°
2026-04-22 02:31 32.26337 -93.08779 6513 ft 255 kts 282°
2026-04-22 02:31 32.26845 -93.10790 6507 ft 255 kts 282°
2026-04-22 02:31 32.27351 -93.12801 6510 ft 255 kts 282°
2026-04-22 02:32 32.27857 -93.14813 6508 ft 255 kts 282°
2026-04-22 02:32 32.28360 -93.16820 6507 ft 255 kts 282°
2026-04-22 02:32 32.28864 -93.18830 6506 ft 255 kts 282°
2026-04-22 02:32 32.29369 -93.20843 6506 ft 255 kts 282°
2026-04-22 02:33 32.29865 -93.22825 6506 ft 255 kts 282°
2026-04-22 02:33 32.30369 -93.24833 6505 ft 255 kts 282°
2026-04-22 02:33 32.30873 -93.26845 6503 ft 255 kts 282°
2026-04-22 02:33 32.31374 -93.28854 6503 ft 255 kts 282°
2026-04-22 02:34 32.31877 -93.30865 6500 ft 254 kts 282°
2026-04-22 02:34 32.32379 -93.32876 6499 ft 254 kts 282°
2026-04-22 02:34 32.33041 -93.34826 6508 ft 258 kts 292°
2026-04-22 02:34 32.33861 -93.36714 6506 ft 258 kts 293°
2026-04-22 02:35 32.34684 -93.38601 6507 ft 258 kts 293°
2026-04-22 02:35 32.35498 -93.40492 6504 ft 258 kts 293°
2026-04-22 02:35 32.36310 -93.42383 6505 ft 258 kts 293°
2026-04-22 02:35 32.37076 -93.44161 6503 ft 258 kts 293°
2026-04-22 02:36 32.37907 -93.46091 6472 ft 259 kts 293°
2026-04-22 02:36 32.38734 -93.48009 6210 ft 266 kts 293°
2026-04-22 02:36 32.39577 -93.49951 5871 ft 271 kts 293°
2026-04-22 02:36 32.40439 -93.51949 5509 ft 274 kts 292°
2026-04-22 02:37 32.41294 -93.53958 5147 ft 273 kts 292°
2026-04-22 02:37 32.42145 -93.55945 4783 ft 269 kts 292°
2026-04-22 02:37 32.42987 -93.57907 4428 ft 264 kts 292°
2026-04-22 02:37 32.43809 -93.59834 4086 ft 261 kts 292°
2026-04-22 02:38 32.44627 -93.61747 3745 ft 259 kts 292°
2026-04-22 02:38 32.45442 -93.63647 3406 ft 258 kts 293°
2026-04-22 02:38 32.46250 -93.65537 3065 ft 257 kts 293°
2026-04-22 02:38 32.47054 -93.67420 2737 ft 256 kts 294°
2026-04-22 02:39 32.47851 -93.69275 2390 ft 241 kts 295°
2026-04-22 02:39 32.48494 -93.70964 2097 ft 211 kts 285°
2026-04-22 02:39 32.48723 -93.72568 1848 ft 183 kts 269°
2026-04-22 02:39 32.48630 -93.73943 1641 ft 153 kts 255°
2026-04-22 02:40 32.48348 -93.75061 1454 ft 132 kts 243°
2026-04-22 02:40 32.47976 -93.75931 1302 ft 103 kts 234°
2026-04-22 02:40 32.47646 -93.76621 1174 ft 95 kts 235°
2026-04-22 02:40 32.47325 -93.77293 1050 ft 93 kts 237°
2026-04-22 02:41 32.47012 -93.77952 932 ft 90 kts 239°
2026-04-22 02:41 32.46711 -93.78599 810 ft 89 kts 239°
2026-04-22 02:41 32.46410 -93.79234 696 ft 89 kts 240°
2026-04-22 02:41 32.46111 -93.79875 582 ft 89 kts 240°
2026-04-22 02:42 32.45810 -93.80517 466 ft 89 kts 240°
2026-04-22 02:42 32.45509 -93.81159 349 ft 89 kts 242°
2026-04-22 02:42 32.45212 -93.81800 243 ft 88 kts 241°
2026-04-22 02:42 32.44953 -93.82342 248 ft 58 kts 240°
2026-04-22 02:43 32.44880 -93.82557 246 ft 13 kts 323°
2026-04-22 02:43 32.44978 -93.82581 244 ft 16 kts 351°
2026-04-22 02:43 32.45089 -93.82585 247 ft 16 kts 358°
2026-04-22 02:43 32.45191 -93.82589 249 ft 11 kts 324°
2026-04-22 02:44 32.45177 -93.82611 250 ft 0 kts 181°